This is the latest recevied weather packets stored in our database for station/object KC3UTO. If no packets are shown the sender has not sent any weather packets the latest 1 day(s).
| Time | Temp. | Humidity | Pressure | Rain* | Wind** | Luminosity | Snow |
|---|---|---|---|---|---|---|---|
| 1778071953 | 18.33° C | 73% | 1008.6 hPa | 0 mm | 2.68 m/s, 225° | 86 W/m² | - |
| 1778071651 | 18.33° C | 73% | 1008.6 hPa | 0 mm | 2.24 m/s, 241° | 95 W/m² | - |
| 1778071348 | 18.89° C | 72% | 1008.7 hPa | 0 mm | 1.79 m/s, 206° | 79 W/m² | - |
| 1778071046 | 18.89° C | 71% | 1008.7 hPa | 0 mm | 0 m/s | 104 W/m² | - |
| 1778070744 | 18.89° C | 70% | 1008.6 hPa | 0 mm | 0.89 m/s, 270° | 139 W/m² | - |
| 1778070441 | 18.89° C | 70% | 1008.5 hPa | 0 mm | 1.79 m/s, 245° | 150 W/m² | - |
| 1778070138 | 18.89° C | 69% | 1008.4 hPa | 0 mm | 0.89 m/s, 91° | 117 W/m² | - |
| 1778069836 | 18.89° C | 69% | 1008.3 hPa | 0 mm | 1.34 m/s, 85° | 124 W/m² | - |
| 1778069532 | 18.89° C | 69% | 1008.2 hPa | 0 mm | 0.45 m/s, 332° | 144 W/m² | - |
| 1778069230 | 18.89° C | 69% | 1008.4 hPa | 0 mm | 0.89 m/s, 27° | 120 W/m² | - |
| 1778068927 | 18.89° C | 69% | 1008.4 hPa | 0 mm | 1.34 m/s, 251° | 147 W/m² | - |
| 1778068626 | 18.89° C | 70% | 1008.3 hPa | 0 mm | 0 m/s | 133 W/m² | - |
| 1778068323 | 18.89° C | 69% | 1008.4 hPa | 0 mm | 1.79 m/s, 227° | 118 W/m² | - |
| 1778068020 | 18.89° C | 70% | 1008.3 hPa | 0 mm | 0 m/s | 118 W/m² | - |
| 1778067718 | 18.89° C | 70% | 1008.3 hPa | 0 mm | 0.89 m/s, 43° | 84 W/m² | - |
| 1778067417 | 18.33° C | 70% | 1008.4 hPa | 0 mm | 0.89 m/s, 321° | 93 W/m² | - |
| 1778067114 | 18.89° C | 70% | 1008.3 hPa | 0 mm | 0 m/s | 47 W/m² | - |
| 1778066809 | 18.89° C | 70% | 1008.2 hPa | 0 mm | 0.45 m/s, 230° | 47 W/m² | - |
| 1778066507 | 18.89° C | 70% | 1008.2 hPa | 0 mm | 1.34 m/s, 232° | 45 W/m² | - |
| 1778066205 | 18.89° C | 69% | 1008.1 hPa | 0 mm | 0.89 m/s, 347° | 55 W/m² | - |
| 1778065902 | 18.89° C | 70% | 1008.3 hPa | 0 mm | 0.89 m/s, 36° | 62 W/m² | - |
| 1778065599 | 18.89° C | 69% | 1008.3 hPa | 0 mm | 0.89 m/s, 247° | 54 W/m² | - |
| 1778065297 | 18.89° C | 69% | 1008.4 hPa | 0 mm | 0.89 m/s, 276° | 32 W/m² | - |
| 1778064993 | 18.89° C | 69% | 1008 hPa | 0 mm | 0 m/s | 48 W/m² | - |
| 1778064690 | 18.89° C | 69% | 1007.9 hPa | 0 mm | 1.34 m/s, 85° | 49 W/m² | - |
* Rain latest hour (hover to see other rain measurements)
** Current wind speed in m/s (hover to see current wind gust speed)